Regional Weather Roundup
Issued by NWS

Home | Current Version | Previous Version | Graphics & Text | Print | Product List | Glossary On
Versions: 1 2 3 4 5 6 7 8 9 10 11 12 13 14 15 16 17 18 19 20 21 22 23 24 25 26 27 28 29 30 31 32 33 34 35 36 37 38 39 40 41 42 43 44 45 46 47 48 49 50
000
ASUS43 KIND 241500
RWRIN

WEATHER ROUNDUP FOR INDIANA
NATIONAL WEATHER SERVICE INDIANAPOLIS IN
1100 AM EDT WED MAY 24 2017

NOTE: "FAIR" INDICATES FEW OR NO CLOUDS BELOW 12,000 FEET WITH NO
SIGNIFICANT WEATHER AND/OR OBSTRUCTIONS TO VISIBILITY.

* - STATION DOES NOT REPORT WEATHER SUCH AS PRECIPITATION OR FOG.

+ - STATION NOT QUALITY CONTROLLED BY THE NATIONAL WEATHER SERVICE.
    USE DATA WITH CAUTION...ESPECIALLY DEWPOINT AND RELATIVE
    HUMIDITY OBSERVATIONS.

INZ001>003-010>013-019-020-241600-
NORTHWEST INDIANA

CITY           SKY/WX    TMP DP  RH WIND       PRES   REMARKS
GARY /AIRPORT/ CLOUDY    55  52  88 N13       29.57F
MICHIGAN CITY+ CLOUDY    59  55  88 N6        29.54F
MONTICELLO +   CLOUDY    60  55  81 NE3       29.52S
RENSSELAER +   LGT RAIN  61  54  77 N6        29.53F

$$

LMZ046-743>745-241600-
SOUTHERN LAKE MICHIGAN

STATION/POSITION TIME  TEMP    WIND        PRES    WAVE
                       AIR SEA DIR/SP/G            HT
                 (UTC) (F)     (DEG/KT/KT) (MB)    (FT)
BURNS HARBOR     1440   53      60/ 13/ 14 1001.4F
MICHIGAN CITY    1430   52      30/ 14/ 16   N/A
5NW MICH CITY    1450   52 53   30/ 12/ 16   N/A     3

$$

INZ004-005-014>016-021>024-241600-
NORTH CENTRAL INDIANA

CITY           SKY/WX    TMP DP  RH WIND       PRES   REMARKS
GOSHEN         SUNNY     67  55  65 E7        29.52F
SOUTH BEND       N/A    N/A N/A N/A MISG      29.53F

$$

INZ006>009-017-018-025>027-241600-
NORTHEAST INDIANA

CITY           SKY/WX    TMP DP  RH WIND       PRES   REMARKS
ANGOLA *+      PTSUNNY   61  52  72 E6        29.54F
FORT WAYNE     PTSUNNY   64  56  75 E8        29.53F
KENDALLVILLE + PTSUNNY   64  55  72 E7        29.54F

$$

INZ028-029-035-036-043>045-051>053-241600-
WEST CENTRAL INDIANA

CITY           SKY/WX    TMP DP  RH WIND       PRES   REMARKS
CRAWFORDSVL +  DRIZZLE   57  57 100 NE3       29.53S
GREENCASTLE +  LGT RAIN  57  55  94 N3        29.52F
LAFAYETTE      CLOUDY    60  56  86 VRB3      29.52F
TERRE HAUTE    LGT RAIN  59  55  87 N6        29.52F FOG

$$

INZ030>032-037>040-046>048-054>057-064-065-241600-
CENTRAL INDIANA

CITY           SKY/WX    TMP DP  RH WIND       PRES   REMARKS
ANDERSON       DRIZZLE  N/A N/A N/A SW6       29.53
CP ATTERBURY + LGT RAIN  63  57  82 W3        29.51S
COLUMBUS       CLOUDY    63  55  77 CALM      29.51
INDIANAPOLIS   LGT RAIN  61  57  87 NW7       29.51F FOG
-EAGLE CREEK   CLOUDY    61  56  83 NW8       29.50F HAZE
KOKOMO +       PTSUNNY   64  56  75 W6        29.52F
SHELBYVILLE    LGT RAIN  65  56  72 SE5       29.51R

$$

INZ033-034-041-042-049-050-058-059-241600-
EAST CENTRAL INDIANA

CITY           SKY/WX    TMP DP  RH WIND       PRES   REMARKS
MUNCIE         LGT RAIN  66  58  75 CALM      29.51F
RICHMOND +     CLOUDY    63  57  82 SE9       29.53F

$$

INZ060-061-067>069-081>083-085>088-241600-
SOUTHWEST INDIANA

CITY           SKY/WX    TMP DP  RH WIND       PRES   REMARKS
EVANSVILLE     LGT RAIN  61  57  87 N7        29.51F FOG
HUNTINGBURG *+ LGT RAIN  58  57  97 N7        29.51F FOG

$$

INZ062-063-066-070>080-084-089>092-241600-
SOUTH CENTRAL AND SOUTHEAST INDIANA

CITY           SKY/WX    TMP DP  RH WIND       PRES   REMARKS
BLOOMINGTON    LGT RAIN  58  55  90 NW3       29.52F FOG
MADISON *+     CLOUDY    63  59  88 CALM      29.52S
SEYMOUR +      LGT RAIN  61  59  94 W7        29.51S

$$





USA.gov is the U.S. government's official web portal to all federal, state and local government web resources and services.